星链-1507 (STARLINK-1507 )

导读 | 豆包AI

STARLINK-1507是美国太空探索技术公司Starlink卫星互联网项目的一员,于2020年6月13日发射入轨。它属于低轨通信卫星,依托星链星座组网,为全球提供高速互联网服务,尤其覆盖偏远地区,也服务于美军通信等特殊需求,是星链大规模部署中重要的组网卫星。

Basic Information
目录编号:
45748
目录名称:
STARLINK-1507
国际标识:
2020-038U
轨道中心:
EARTH
卫星名称:
星链-1507
卫星全名:
星链-1507 (STARLINK-1507 )
卫星状态:
已陨落 最后检测时间 2025-06-16
发射日期:
2020-06-13 UTC
国别 :
美国 (US)
星等 :
--
Orbit Information
数据来源 国际轨道数据
星历时间: 2025-06-16T12:40:38+0800
轨道信息已过期271天
半长轴: 6521.522km
偏心率: 0.0006955
轨道倾角: 53.012°
近地点辐角 299.205°
升交点赤经 245.639°
平近点角 151.243°
近地点: 138.851km
远地点: 147.923km
周期: 87.354分钟
每日圈数: 16.484636
Detailed Information
固有亮度:
5
最大亮度:
2.5
卫星平台:
Starlink V1.0
覆盖范围:
全球
运营商:
太空探索技术公司
运营商所在国:
美国
制造商(研发单位):
太空探索技术公司
制造商所在国:
美国
使用方式:
暂无
Satellite Introduction
星链(Starlink)计划是由太空探索技术公司(SpaceX)提出的一个巨型低轨卫星互联网星座项目,计划在2019年至2024年间在太空搭建由约1.2万颗卫星组成的“星链”网络,其中1584颗将部署在地球上空550千米处的近地轨道,并从2020年开始工作。该卫星仍在工作。